Hourly Data Report for July 06, 2021

LYNN LAKE
MANITOBA
Current Station Operator: NAVCAN

56°51'50.000" N
101°04'34.000" W
356.60 m
5061645
71078
YYL

Download Data

Hourly Data (July 2021)
Hourly Data Report for July 6, 2021
TIME
LST
Temp Definition
°C
Dew Point Definition
°C
Rel Hum Definition
%
Precip. Amount Definition
mm

Wind Dir Definition
10's deg

Wind Spd Definition
km/h
Visibility Definition
km
Stn Press Definition
kPa
Hmdx Definition


Wind Chill Definition


Weather Definition


00:00 7.8 5.3 84 0.0 16 8 16.1 98.42     LegendNANA
01:00 6.5 5.1 91 0.0 22 5 16.1 98.44     LegendNANA
02:00 6.0 5.3 95 0.0 23 5 16.1 98.45     LegendNANA
03:00 5.3 5.0 98 0.0 23 5 16.1 98.46     LegendNANA
04:00 4.6 4.6 100 0.0 23 8 16.1 98.46     LegendNANA
05:00 5.4 5.1 98 0.0 24 8 16.1 98.49     LegendNANA
06:00 7.3 6.2 93 0.0 23 8 16.1 98.48     LegendNANA
07:00 10.5 6.8 78 0.0 23 8 16.1 98.48     LegendNANA
08:00 12.7 5.2 60 0.0 22 8 16.1 98.45     LegendNANA
09:00 13.7 3.2 49 0.0 LegendMM 4 16.1 98.41     LegendNANA
10:00 14.7 4.4 50 0.0 21 9 16.1 98.38     LegendNANA
11:00 15.9 5.6 50 0.0 17 9 16.1 98.31     LegendNANA
12:00 17.0 4.1 42 0.0 13 5 16.1 98.25     LegendNANA
13:00 18.0 5.0 42 0.0 17 8 16.1 98.20     LegendNANA
14:00 18.5 3.7 37 0.0 21 13 16.1 98.12     LegendNANA
15:00 19.2 3.9 36 0.0 21 8 16.1 98.03     LegendNANA
16:00 19.5 4.5 37 0.0 LegendMM 8 16.1 97.98     LegendNANA
17:00 19.6 2.1 31 0.0 28 13 16.1 97.91     LegendNANA
18:00 19.5 2.1 31 0.0 28 11 16.1 97.85     LegendNANA
19:00 19.1 2.5 33 0.0 25 15 16.1 97.80     LegendNANA
20:00 18.0 2.9 36 0.0 23 9 16.1 97.76     LegendNANA
21:00 16.3 4.6 46 0.0 21 8 16.1 97.72     LegendNANA
22:00 14.3 4.6 52 0.0 21 9 16.1 97.71     LegendNANA
23:00 12.4 4.7 59 0.0 21 8 16.1 97.68     LegendNANA

Notes on Data Quality.

Legend

  • E = Estimated
  • M = Missing
  • NA = Not Available*
  • [empty] = Indicates an unobserved value
Date modified: